Weather in Djalal-Abad

Kyrgyzstan     40˚56′16″N   72˚59′35″E
temp.,
°C
wind,
m/s
gust,
m/s
humid.,
%
clouds,
%
prec.,
mm/h
press.,
hPa
HPBL,
m
3 december, thu
thu300:00+3˚e1295100 2.1 102722
03:00+3˚sse1198100 1.4 102722
06:00+3˚ene1198100 2.0 102722
09:00+3˚ene2396100 0.6 102829
12:00+4˚ne3397100 2.6 102738
15:00+4˚ne3399100 0.4 102561
18:00+4˚ene2291100 0.4 102727
21:00+3˚ene2294100 0.8 102623
4 december, fri
fri400:00+3˚ne2295100 1.6 102530
03:00+3˚e1197100 1.7 102422
06:00+3˚se1199100 3.4 102322
09:00+3˚se1199100 1.5 102427
12:00+3˚sw23100100 5.1 1024132
15:00+3˚wnw0199100 1.8 102370
18:00+2˚ne1199100 4.6 102448
21:00+2˚sw11100100 3.7 1025111
5 december, sat
sat500:00+1˚sw1299100 6.9 1025174
03:00w1299100 2.8 1026100
06:00sw1299100 5.9 102793
09:00sse1199100 2.4 102966
12:00n1199100 3.4 1027128
15:00+1˚ene1195100 0.1 1026193
18:00e1191100 0.1 102925
21:00ene2283100 0.0 103135
6 december, sun
sun600:00−1˚ne337798 0.0 103147
03:00−2˚ene227487 0.0 103132
06:00−2˚ene237185 0.0 103131
09:00−2˚ene2270100 0.0 103332
12:00+1˚ene117095 0.0 1030127
15:00+2˚w117213 0.0 1028171
18:00−1˚ene227229 0.0 102921
21:00−2˚ene236434 0.0 102929
7 december, mon
mon700:00−1˚ene336567 0.0 102738
03:00−1˚ene3364100 0.0 102735
06:00−1˚ene2364100 0.0 102536
09:00−1˚ene3362100 0.0 102537
12:00+2˚wsw1161100 0.0 1024152
15:00+1˚wnw0169100 0.3 102591
18:00ne3489100 1.1 1028152
21:00ne4584100 0.2 1029145